INMARSAT 5-F1

Last updated on Thu Jul 03 2025 00:02:46 GMT+0000 (Coordinated Universal Time)

1 39476U 13073A 25183.36476726 .00000034 00000+0 00000+0 0 9998 2 39476 0.0187 47.7981 0000540 306.6776 120.0861 1.00271151 42087
UTC large
Height (km)
Speed (km/s)
/
Latitude / Longitude
Inclination (degrees)
Orbital Period (minutes)
Azimuth
Elevation
Range (km)
Doppler Factor

Next 0 passes for location: London (51.5072 / 0.1276)

Sorry there are no passes over London.